Regional Weather Roundup
Issued by NWS

Home | Current Version | Previous Version | Graphics & Text | Print | Product List | Glossary On
Versions: 1 2 3 4 5 6 7 8 9 10 11 12 13 14 15 16 17 18 19 20 21 22 23 24 25 26 27 28 29 30 31 32 33 34 35 36 37 38 39 40 41 42 43 44 45 46 47 48 49 50
000
ASUS43 KTOP 282008
RWRKS

WEATHER ROUNDUP FOR KANSAS
NATIONAL WEATHER SERVICE GOODLAND KS
300 PM CDT THU MAY 28 2015

NOTE:  "FAIR" INDICATES FEW OR NO CLOUDS BELOW 12,000 FEET WITH NO
SIGNIFICANT WEATHER AND/OR OBSTRUCTIONS TO VISIBILITY.

KSZ001>006-013>018-027>032-041>047-282100-
NORTHWEST KANSAS

CITY           SKY/WX    TMP DP  RH WIND       PRES   REMARKS
GOODLAND       PTSUNNY   75  59  57 S13       29.94F
HAYS           MOSUNNY   75  61  60 SE16      29.97F
HILL CITY      PTSUNNY   75  59  57 S12G24    29.97F
RUSSELL        PTSUNNY   76  63  64 SE14      29.97F
$$

KSZ061>065-074>080-084>089-282100-
SOUTHWEST KANSAS

CITY           SKY/WX    TMP DP  RH WIND       PRES   REMARKS
DODGE CITY     CLOUDY    78  55  44 S16       29.98F
ELKHART          N/A     77  61  58 S18         N/A
GARDEN CITY    PTSUNNY   75  61  61 S22G30    29.94F
GREAT BEND     CLOUDY    73  64  73 SE12      29.98F
LIBERAL        PTSUNNY   81  63  54 S18G26    29.96F
PRATT          MOSUNNY   77  59  53 S15       30.00F
$$

KSZ066>073-081>083-090>101-282100-
SOUTHEAST KANSAS

CITY           SKY/WX    TMP DP  RH WIND       PRES   REMARKS
CHANUTE        CLOUDY    72  65  78 S10       30.02F
COFFEYVILLE    CLOUDY    73  66  78 VRB5      30.01F
HUTCHINSON     PTSUNNY   76  63  64 S17G23    30.00F
MEDICINE LODGE   N/A     76  66  71 SE15      29.97F
NEWTON         PTSUNNY   73  61  64 S12G21    30.03F
PARSONS        CLOUDY    72  65  78 SE5       30.03F
WICHITA INTL   PTSUNNY   76  63  64 S18       30.00F
WICHITA JABRA  PTSUNNY   76  63  64 S20G25    29.99F
WICHITA MCCONL PTSUNNY   76  65  67 SE17      30.00F
WINFIELD       PTSUNNY   77  65  66 S9        30.01F
$$

KSZ007>012-019>026-033>040-048>060-102>105-282100-
NORTHEAST KANSAS

CITY           SKY/WX    TMP DP  RH WIND       PRES   REMARKS
CONCORDIA      CLOUDY    71  65  81 S13       29.98F
EMPORIA        CLOUDY    73  63  70 S20G28    30.02F
LAWRENCE       CLOUDY    70  64  81 S9        30.04F
MANHATTAN      CLOUDY    75  66  73 S13       30.01F
MARYSVILLE     CLOUDY    72  64  78 S13G23    30.00F
OLATHE IND     LGT RAIN  69  66  90 S10       30.06F
OLATHE EXE     LGT RAIN  69  67  93 S9        30.05F
SALINA         CLOUDY    76  64  66 S10       30.01F
TOPEKA BILLARD CLOUDY    72  65  78 S13       30.04F
TOPEKA FORBES  CLOUDY    73  65  75 S13       30.03F
$$


USA.gov is the U.S. government's official web portal to all federal, state and local government web resources and services.